Weather in Kastelorizo

Greece     36°08′56″N   29°35′36″E
temp.,
°C
wind,
m/s
gust,
m/s
humid.,
%
clouds,
%
prec.,
mm/h
press.,
hPa
HPBL,
m
11 april, sun
sun1100:00+6nne43410 0.0 1017135
03:00+6nne33384 0.0 1017115
06:00+5nne32370 0.0 101695
09:00+9s22340 0.0 1017632
12:00+11ssw42470 0.0 1018890
15:00+10sw22510 0.0 1018657
18:00+10wsw22440 0.0 1019571
21:00+8e11510 0.0 1020133
12 april, mon
mon1200:00+9ene33510 0.0 1020153
03:00+9ne32460 0.0 101991
06:00+8nne21440 0.0 101965
09:00+11sse22473 0.0 1020592
12:00+12s436360 0.0 10201029
15:00+11s336763 0.1 1020723
18:00+11s226657 0.0 1020634
21:00+9e01740 0.0 1020229
13 april, tue
tue1300:00+9nne11743 0.0 102092
03:00+9nne10734 0.0 1020111
06:00+9ene11730 0.0 1020139
09:00+12sse22600 0.0 1020471
12:00+13ssw426220 0.0 1020705
15:00+13sw326319 0.0 1020592
18:00+13sw226817 0.0 1019349
21:00+10ssw01800 0.0 1020201
14 april, wed
wed1400:00+10e11795 0.0 1020165
03:00+10ese0179100 0.0 1020169
06:00+10se0178100 0.0 1019184
09:00+12s2166100 0.0 1020377
12:00+15se6763100 0.0 1018529
15:00+15sse556770 0.0 1019610
18:00+13sse44734 0.0 1018411
21:00+11e34780 0.0 1019180
15 april, thu
thu1500:00+11ese226533 0.0 1018146
03:00+11ese1253100 0.0 1017128
06:00+11ese2255100 0.0 1017152
09:00+14sse335487 0.0 1017352
12:00+15s43600 0.0 1018488
15:00+15ssw33574 0.0 1017450
18:00+14wsw22624 0.0 1016252
21:00+12nw12680 0.0 1017115